Regional Weather Roundup
Issued by NWS

Home | Current Version | Previous Version | Graphics & Text | Print | Product List | Glossary On
Versions: 1 2 3 4 5 6 7 8 9 10 11 12 13 14 15 16 17 18 19 20 21 22 23 24 25 26 27 28 29 30 31 32 33 34 35 36 37 38 39 40 41 42 43 44 45 46 47 48 49 50
000
ASUS43 KFSD 232302
RWRSD

WEATHER ROUNDUP FOR SOUTH DAKOTA
NATIONAL WEATHER SERVICE SIOUX FALLS SD
500 PM CST TUE JAN 23 2018

NOTE: "FAIR" INDICATES FEW OR NO CLOUDS BELOW 12,000 FEET WITH NO
SIGNIFICANT WEATHER AND/OR OBSTRUCTIONS TO VISIBILITY.


SDZ001>005-009-010-012>017-240000-
NORTHWEST AND NORTH CENTRAL SOUTH DAKOTA

CITY           SKY/WX    TMP DP  RH WIND       PRES   REMARKS
BUFFALO          N/A     35  23  61 W13       30.08R WCI  26
FAITH            N/A     37  24  59 NW15      30.14R
MOBRIDGE       CLEAR     40  25  55 N7        30.09R
$$

SDZ012>016-024>037-041>051-057-063-072>074-240000-
SOUTHWEST AND SOUTH CENTRAL SOUTH DAKOTA

CITY           SKY/WX    TMP DP  RH WIND       PRES   REMARKS
RAPID CTY ARPT CLEAR     39  17  41 N14       30.16R
PIERRE         PTCLDY    40  25  55 N12       30.13R
CUSTER         CLEAR     28   9  44 W10G20    30.12R WCI  19
ELLSWORTH AFB  CLEAR     40  17  39 N16       30.15R
PHILIP         CLEAR     41  26  55 NW10      30.16R
PINE RIDGE     CLEAR     31  22  69 W12       30.20R WCI  22
SPEARFISH        N/A     36  19  51 W10G17    30.16R
WINNER         FAIR      37  28  70 W16       30.14R
$$

SDZ004>011-016>023-039-040-240000-
NORTHEAST SOUTH DAKOTA

CITY           SKY/WX    TMP DP  RH WIND       PRES   REMARKS
ABERDEEN       MOCLDY    33  24  69 NW6       30.11R WCI  28
WATERTOWN      CLOUDY    23  22  96 W8        30.09R FOG     WCI  14
BROOKINGS      CLOUDY    23  21  92 W9        30.12R FOG     WCI  13
SISSETON         N/A     25  21  85 NW6       30.12R WCI  18
$$

SDZ017-020-022-023-036>040-048>070-240000-
SOUTHEAST SOUTH DAKOTA

CITY           SKY/WX    TMP DP  RH WIND       PRES   REMARKS
SIOUX FALLS    CLOUDY    24  22  91 W5        30.14R WCI  18
HURON          MOCLDY    26  23  88 SW3       30.13R
CHAMBERLAIN    PTCLDY    33  30  88 W7        30.14R WCI  26
MITCHELL       CLOUDY    31  26  82 W5        30.15R WCI  26
YANKTON        CLOUDY    27  22  81 E3        30.16R
$$

ABBREVIATIONS USED IN REMARKS
   TC - TEMPERATURE IN CELSIUS
  WCI - WIND CHILL INDEX
   HX - HEAT INDEX
  VSB - VISIBILITY





USA.gov is the U.S. government's official web portal to all federal, state and local government web resources and services.